This demonstration page uses our WeatherBlox Daily Observations layout. Learn more.

Left ArrowRight Arrow

36.17497, -115.13722

Hourly Observations for July 3, 2020

Temp ( °F °C ) Dew Point ( °F °C ) Humidity (%) Winds ( mph kmh ) Pressure ( in mb ) Visibility ( mi km ) Precip ( " mm )
12:53 am 00:53 Clear 87 30.6 32 0 14 14 SSW 3 6 29.84 1010 10 16 0.00 0.00
1:53 am 01:53 Clear 86 30 30 -1.1 13 13 S 9 15 29.84 1011 10 16 0.00 0.00
2:53 am 02:53 Clear 85 29.4 28 -2.2 13 13 S 10 17 29.85 1011 10 16 0.00 0.00
3:53 am 03:53 Clear 83 28.3 30 -1.1 15 15 S 5 7 29.87 1011 10 16 0.00 0.00
4:53 am 04:53 Clear 80 26.7 32 0 17 17 S 3 6 29.88 1012 10 16 0.00 0.00
5:53 am 05:53 Sunny 78 25.6 32 0 19 19 Calm 29.91 1013 10 16 0.00 0.00
6:53 am 06:53 Sunny 81 27.2 35 1.7 19 19 Calm 29.93 1013 10 16 0.00 0.00
7:53 am 07:53 Sunny 86 30 34 1.1 15 15 S 6 9 29.94 1014 10 16 0.00 0.00
8:53 am 08:53 Sunny 90 32.2 35 1.7 14 14 SE 9 15 29.95 1014 10 16 0.00 0.00
9:53 am 09:53 Sunny 93 33.9 34 1.1 12 12 SE 10 17 29.94 1014 10 16 0.00 0.00
10:53 am 10:53 Sunny 96 35.6 39 3.9 14 14 SE 12 19 29.93 1014 10 16 0.00 0.00
11:53 am 11:53 Sunny 98 36.7 40 4.4 13 13 SSW 9 15 29.92 1013 10 16 0.00 0.00
12:53 pm 12:53 Sunny 100 37.8 40 4.4 13 13 S 13 20 29.90 1013 10 16 0.00 0.00
1:53 pm 13:53 Sunny 101 38.3 39 3.9 12 12 S 16 26 29.88 1012 10 16 0.00 0.00
2:53 pm 14:53 Sunny 102 38.9 39 3.9 11 11 SE 9 15 29.86 1011 10 16 0.00 0.00
3:53 pm 15:53 Sunny 103 39.4 40 4.4 11 11 SW 13 20 29.84 1011 10 16 0.00 0.00
4:53 pm 16:53 Sunny 102 38.9 37 2.8 10 10 VRB 6 9 29.83 1010 10 16 0.00 0.00
5:53 pm 17:53 Sunny 101 38.3 37 2.8 11 11 WSW 10 17 29.82 1010 10 16 0.00 0.00
6:53 pm 18:53 Sunny 100 37.8 33 0.6 10 10 SW 13 20 29.82 1010 10 16 0.00 0.00
7:53 pm 19:53 Sunny 98 36.7 28 -2.2 8 8 SW 10 17 29.83 1010 10 16 0.00 0.00
8:53 pm 20:53 Clear 96 35.6 22 -5.6 7 7 SW 8 13 29.84 1011 10 16 0.00 0.00
9:53 pm 21:53 Clear 93 33.9 22 -5.6 7 7 SW 9 15 29.86 1011 10 16 0.00 0.00
10:53 pm 22:53 Clear 91 32.8 21 -6.1 8 8 SSW 8 13 29.87 1011 10 16 0.00 0.00
11:53 pm 23:53 Clear 87 30.6 23 -5 9 9 SE 8 13 29.88 1012 10 16 0.00 0.00

Powered by AerisWeather